owner,sensor,date,latitude,longitude,sea_surface_height_above_sea_level,qcFlag 
TCOON,ioos:station:TCOON:057:1,2015-05-01T00:12:00Z,28.4460,-96.3961,3.618,1111122 
TCOON,ioos:station:TCOON:057:1,2015-05-01T01:12:00Z,28.4460,-96.3961,3.607,1111122 
TCOON,ioos:station:TCOON:057:1,2015-05-01T02:12:00Z,28.4460,-96.3961,3.597,1111122 
TCOON,ioos:station:TCOON:057:1,2015-05-01T03:12:00Z,28.4460,-96.3961,3.586,1111122 
TCOON,ioos:station:TCOON:057:1,2015-05-01T04:18:00Z,28.4460,-96.3961,3.599,1111122 
TCOON,ioos:station:TCOON:057:1,2015-05-01T05:18:00Z,28.4460,-96.3961,3.613,1111122 
TCOON,ioos:station:TCOON:057:1,2015-05-01T06:18:00Z,28.4460,-96.3961,3.634,1111122 
TCOON,ioos:station:TCOON:057:1,2015-05-01T07:12:00Z,28.4460,-96.3961,3.643,1111122 
TCOON,ioos:station:TCOON:057:1,2015-05-01T08:12:00Z,28.4460,-96.3961,3.656,1111122 
TCOON,ioos:station:TCOON:057:1,2015-05-01T09:18:00Z,28.4460,-96.3961,3.67,1111122 
TCOON,ioos:station:TCOON:057:1,2015-05-01T10:12:00Z,28.4460,-96.3961,3.687,1111122 
TCOON,ioos:station:TCOON:057:1,2015-05-01T11:12:00Z,28.4460,-96.3961,3.699,1111122 
TCOON,ioos:station:TCOON:057:1,2015-05-01T12:12:00Z,28.4460,-96.3961,3.706,1111122 
TCOON,ioos:station:TCOON:057:1,2015-05-01T14:18:00Z,28.4460,-96.3961,3.715,1111122 
TCOON,ioos:station:TCOON:057:1,2015-05-01T15:18:00Z,28.4460,-96.3961,3.686,1111122 
TCOON,ioos:station:TCOON:057:1,2015-05-01T16:18:00Z,28.4460,-96.3961,3.677,1111122 
TCOON,ioos:station:TCOON:057:1,2015-05-01T17:24:00Z,28.4460,-96.3961,3.668,1111122 
TCOON,ioos:station:TCOON:057:1,2015-05-01T18:18:00Z,28.4460,-96.3961,3.653,1111122 
TCOON,ioos:station:TCOON:057:1,2015-05-01T19:18:00Z,28.4460,-96.3961,3.649,1111122 
TCOON,ioos:station:TCOON:057:1,2015-05-01T20:12:00Z,28.4460,-96.3961,3.638,1111122 
TCOON,ioos:station:TCOON:057:1,2015-05-01T21:12:00Z,28.4460,-96.3961,3.633,1111122 
TCOON,ioos:station:TCOON:057:1,2015-05-01T22:18:00Z,28.4460,-96.3961,3.613,1111122 
TCOON,ioos:station:TCOON:057:1,2015-05-01T23:12:00Z,28.4460,-96.3961,3.598,1111122 
TCOON,ioos:station:TCOON:057:1,2015-05-02T00:12:00Z,28.4460,-96.3961,3.578,1111122 
TCOON,ioos:station:TCOON:057:1,2015-05-02T01:12:00Z,28.4460,-96.3961,3.551,1111122 
TCOON,ioos:station:TCOON:057:1,2015-05-02T02:12:00Z,28.4460,-96.3961,3.539,1111122 
TCOON,ioos:station:TCOON:057:1,2015-05-02T03:12:00Z,28.4460,-96.3961,3.521,1111122 
TCOON,ioos:station:TCOON:057:1,2015-05-02T04:12:00Z,28.4460,-96.3961,3.517,1111122 
TCOON,ioos:station:TCOON:057:1,2015-05-02T05:18:00Z,28.4460,-96.3961,3.513,1111122 
TCOON,ioos:station:TCOON:057:1,2015-05-02T06:18:00Z,28.4460,-96.3961,3.528,1111122 
TCOON,ioos:station:TCOON:057:1,2015-05-02T07:18:00Z,28.4460,-96.3961,3.548,1111122 
TCOON,ioos:station:TCOON:057:1,2015-05-02T08:18:00Z,28.4460,-96.3961,3.569,1111122 
TCOON,ioos:station:TCOON:057:1,2015-05-02T09:12:00Z,28.4460,-96.3961,3.584,1111122 
TCOON,ioos:station:TCOON:057:1,2015-05-02T10:18:00Z,28.4460,-96.3961,3.617,1111122 
TCOON,ioos:station:TCOON:057:1,2015-05-02T11:12:00Z,28.4460,-96.3961,3.628,1111122 
TCOON,ioos:station:TCOON:057:1,2015-05-02T12:12:00Z,28.4460,-96.3961,3.64,1111122 
TCOON,ioos:station:TCOON:057:1,2015-05-02T13:12:00Z,28.4460,-96.3961,3.655,1111122 
TCOON,ioos:station:TCOON:057:1,2015-05-02T14:12:00Z,28.4460,-96.3961,3.652,1111122 
TCOON,ioos:station:TCOON:057:1,2015-05-02T15:12:00Z,28.4460,-96.3961,3.635,1111122 
TCOON,ioos:station:TCOON:057:1,2015-05-02T16:12:00Z,28.4460,-96.3961,3.623,1111122 
TCOON,ioos:station:TCOON:057:1,2015-05-02T17:18:00Z,28.4460,-96.3961,3.619,1111122 
TCOON,ioos:station:TCOON:057:1,2015-05-02T18:18:00Z,28.4460,-96.3961,3.606,1111122 
TCOON,ioos:station:TCOON:057:1,2015-05-02T19:12:00Z,28.4460,-96.3961,3.613,1111122 
TCOON,ioos:station:TCOON:057:1,2015-05-02T20:12:00Z,28.4460,-96.3961,3.597,1111122 
TCOON,ioos:station:TCOON:057:1,2015-05-02T21:18:00Z,28.4460,-96.3961,3.59,1111122 
TCOON,ioos:station:TCOON:057:1,2015-05-02T22:18:00Z,28.4460,-96.3961,3.574,1111122 
TCOON,ioos:station:TCOON:057:1,2015-05-02T23:12:00Z,28.4460,-96.3961,3.562,1111122 
TCOON,ioos:station:TCOON:057:1,2015-05-03T00:12:00Z,28.4460,-96.3961,3.547,1111122 
TCOON,ioos:station:TCOON:057:1,2015-05-03T01:12:00Z,28.4460,-96.3961,3.524,1111122 
TCOON,ioos:station:TCOON:057:1,2015-05-03T02:12:00Z,28.4460,-96.3961,3.506,1111122 
TCOON,ioos:station:TCOON:057:1,2015-05-03T03:12:00Z,28.4460,-96.3961,3.485,1111122 
TCOON,ioos:station:TCOON:057:1,2015-05-03T04:18:00Z,28.4460,-96.3961,3.476,1111122 
TCOON,ioos:station:TCOON:057:1,2015-05-03T05:18:00Z,28.4460,-96.3961,3.481,1111122 
TCOON,ioos:station:TCOON:057:1,2015-05-03T07:06:00Z,28.4460,-96.3961,3.508,1111122 
TCOON,ioos:station:TCOON:057:1,2015-05-03T08:18:00Z,28.4460,-96.3961,3.558,1111122 
TCOON,ioos:station:TCOON:057:1,2015-05-03T09:12:00Z,28.4460,-96.3961,3.598,1111122 
TCOON,ioos:station:TCOON:057:1,2015-05-03T10:12:00Z,28.4460,-96.3961,3.623,1111122 
TCOON,ioos:station:TCOON:057:1,2015-05-03T11:12:00Z,28.4460,-96.3961,3.65,1111122 
TCOON,ioos:station:TCOON:057:1,2015-05-03T12:12:00Z,28.4460,-96.3961,3.673,1111122 
TCOON,ioos:station:TCOON:057:1,2015-05-03T13:12:00Z,28.4460,-96.3961,3.682,1111122 
TCOON,ioos:station:TCOON:057:1,2015-05-03T14:18:00Z,28.4460,-96.3961,3.696,1111122 
TCOON,ioos:station:TCOON:057:1,2015-05-03T15:18:00Z,28.4460,-96.3961,3.693,1111122 
TCOON,ioos:station:TCOON:057:1,2015-05-03T16:18:00Z,28.4460,-96.3961,3.692,1111122 
TCOON,ioos:station:TCOON:057:1,2015-05-03T17:12:00Z,28.4460,-96.3961,3.686,1111122 
TCOON,ioos:station:TCOON:057:1,2015-05-03T18:12:00Z,28.4460,-96.3961,3.684,1111122 
TCOON,ioos:station:TCOON:057:1,2015-05-03T19:18:00Z,28.4460,-96.3961,3.688,1111122 
TCOON,ioos:station:TCOON:057:1,2015-05-03T20:12:00Z,28.4460,-96.3961,3.683,1111122 
TCOON,ioos:station:TCOON:057:1,2015-05-03T21:12:00Z,28.4460,-96.3961,3.668,1111122 
TCOON,ioos:station:TCOON:057:1,2015-05-03T22:18:00Z,28.4460,-96.3961,3.65,1111122 
TCOON,ioos:station:TCOON:057:1,2015-05-03T23:12:00Z,28.4460,-96.3961,3.629,1111122 
TCOON,ioos:station:TCOON:057:1,2015-05-04T00:12:00Z,28.4460,-96.3961,3.608,1111122 
TCOON,ioos:station:TCOON:057:1,2015-05-04T01:12:00Z,28.4460,-96.3961,3.589,1111122 
TCOON,ioos:station:TCOON:057:1,2015-05-04T02:12:00Z,28.4460,-96.3961,3.571,1111122 
TCOON,ioos:station:TCOON:057:1,2015-05-04T03:12:00Z,28.4460,-96.3961,3.563,1111122 
TCOON,ioos:station:TCOON:057:1,2015-05-04T04:12:00Z,28.4460,-96.3961,3.545,1111122 
TCOON,ioos:station:TCOON:057:1,2015-05-04T05:18:00Z,28.4460,-96.3961,3.539,1111122 
TCOON,ioos:station:TCOON:057:1,2015-05-04T06:18:00Z,28.4460,-96.3961,3.558,1111122 
TCOON,ioos:station:TCOON:057:1,2015-05-04T07:18:00Z,28.4460,-96.3961,3.575,1111122 
TCOON,ioos:station:TCOON:057:1,2015-05-04T08:18:00Z,28.4460,-96.3961,3.623,1111122 
TCOON,ioos:station:TCOON:057:1,2015-05-04T09:12:00Z,28.4460,-96.3961,3.656,1111122 
TCOON,ioos:station:TCOON:057:1,2015-05-04T10:12:00Z,28.4460,-96.3961,3.692,1111122 
TCOON,ioos:station:TCOON:057:1,2015-05-04T11:12:00Z,28.4460,-96.3961,3.734,1111122 
TCOON,ioos:station:TCOON:057:1,2015-05-04T12:12:00Z,28.4460,-96.3961,3.755,1111122 
TCOON,ioos:station:TCOON:057:1,2015-05-04T13:12:00Z,28.4460,-96.3961,3.784,1111122 
TCOON,ioos:station:TCOON:057:1,2015-05-04T14:12:00Z,28.4460,-96.3961,3.796,1111122 
TCOON,ioos:station:TCOON:057:1,2015-05-04T15:18:00Z,28.4460,-96.3961,3.804,1111122 
TCOON,ioos:station:TCOON:057:1,2015-05-04T16:18:00Z,28.4460,-96.3961,3.802,1111122 
TCOON,ioos:station:TCOON:057:1,2015-05-04T17:18:00Z,28.4460,-96.3961,3.816,1111122 
TCOON,ioos:station:TCOON:057:1,2015-05-04T18:18:00Z,28.4460,-96.3961,3.815,1111122 
TCOON,ioos:station:TCOON:057:1,2015-05-04T19:18:00Z,28.4460,-96.3961,3.812,1111122 
TCOON,ioos:station:TCOON:057:1,2015-05-04T20:18:00Z,28.4460,-96.3961,3.803,1111122 
TCOON,ioos:station:TCOON:057:1,2015-05-04T21:12:00Z,28.4460,-96.3961,3.794,1111122 
TCOON,ioos:station:TCOON:057:1,2015-05-04T22:18:00Z,28.4460,-96.3961,3.767,1111122 
TCOON,ioos:station:TCOON:057:1,2015-05-04T23:12:00Z,28.4460,-96.3961,3.741,1111122 
TCOON,ioos:station:TCOON:057:1,2015-05-05T00:12:00Z,28.4460,-96.3961,3.717,1111122 
TCOON,ioos:station:TCOON:057:1,2015-05-05T01:12:00Z,28.4460,-96.3961,3.682,1111122 
TCOON,ioos:station:TCOON:057:1,2015-05-05T02:12:00Z,28.4460,-96.3961,3.662,1111122 
TCOON,ioos:station:TCOON:057:1,2015-05-05T03:12:00Z,28.4460,-96.3961,3.632,1111122 
TCOON,ioos:station:TCOON:057:1,2015-05-05T04:12:00Z,28.4460,-96.3961,3.598,1111122 
TCOON,ioos:station:TCOON:057:1,2015-05-05T05:18:00Z,28.4460,-96.3961,3.594,1111122 
TCOON,ioos:station:TCOON:057:1,2015-05-05T06:18:00Z,28.4460,-96.3961,3.595,1111122 
TCOON,ioos:station:TCOON:057:1,2015-05-05T07:12:00Z,28.4460,-96.3961,3.611,1111122 
TCOON,ioos:station:TCOON:057:1,2015-05-05T08:18:00Z,28.4460,-96.3961,3.656,1111122 
TCOON,ioos:station:TCOON:057:1,2015-05-05T09:12:00Z,28.4460,-96.3961,3.681,1111122 
TCOON,ioos:station:TCOON:057:1,2015-05-05T10:12:00Z,28.4460,-96.3961,3.731,1111122 
TCOON,ioos:station:TCOON:057:1,2015-05-05T11:12:00Z,28.4460,-96.3961,3.763,1111122 
TCOON,ioos:station:TCOON:057:1,2015-05-05T12:18:00Z,28.4460,-96.3961,3.805,1111122 
TCOON,ioos:station:TCOON:057:1,2015-05-05T13:12:00Z,28.4460,-96.3961,3.831,1111122 
TCOON,ioos:station:TCOON:057:1,2015-05-05T14:12:00Z,28.4460,-96.3961,3.864,1111122 
TCOON,ioos:station:TCOON:057:1,2015-05-05T15:18:00Z,28.4460,-96.3961,3.881,1111122 
TCOON,ioos:station:TCOON:057:1,2015-05-05T16:18:00Z,28.4460,-96.3961,3.897,1111122 
TCOON,ioos:station:TCOON:057:1,2015-05-05T17:18:00Z,28.4460,-96.3961,3.897,1111122 
TCOON,ioos:station:TCOON:057:1,2015-05-05T18:18:00Z,28.4460,-96.3961,3.922,1111122 
TCOON,ioos:station:TCOON:057:1,2015-05-05T19:18:00Z,28.4460,-96.3961,3.925,1111122 
TCOON,ioos:station:TCOON:057:1,2015-05-05T20:12:00Z,28.4460,-96.3961,3.934,1111122 
TCOON,ioos:station:TCOON:057:1,2015-05-05T21:12:00Z,28.4460,-96.3961,3.924,1111122 
TCOON,ioos:station:TCOON:057:1,2015-05-05T22:18:00Z,28.4460,-96.3961,3.932,1111122 
TCOON,ioos:station:TCOON:057:1,2015-05-05T23:12:00Z,28.4460,-96.3961,3.909,1111122 
TCOON,ioos:station:TCOON:057:1,2015-05-06T00:12:00Z,28.4460,-96.3961,3.875,1111122 
TCOON,ioos:station:TCOON:057:1,2015-05-06T01:12:00Z,28.4460,-96.3961,3.842,1111122 
TCOON,ioos:station:TCOON:057:1,2015-05-06T02:12:00Z,28.4460,-96.3961,3.829,1111122 
TCOON,ioos:station:TCOON:057:1,2015-05-06T03:12:00Z,28.4460,-96.3961,3.804,1111122 
TCOON,ioos:station:TCOON:057:1,2015-05-06T04:12:00Z,28.4460,-96.3961,3.772,1111122 
TCOON,ioos:station:TCOON:057:1,2015-05-06T05:18:00Z,28.4460,-96.3961,3.753,1111122 
TCOON,ioos:station:TCOON:057:1,2015-05-06T06:30:00Z,28.4460,-96.3961,3.758,1111122 
TCOON,ioos:station:TCOON:057:1,2015-05-06T07:18:00Z,28.4460,-96.3961,3.761,1111122 
TCOON,ioos:station:TCOON:057:1,2015-05-06T08:18:00Z,28.4460,-96.3961,3.789,1111122 
TCOON,ioos:station:TCOON:057:1,2015-05-06T09:12:00Z,28.4460,-96.3961,3.814,1111122 
TCOON,ioos:station:TCOON:057:1,2015-05-06T10:12:00Z,28.4460,-96.3961,3.844,1111122 
TCOON,ioos:station:TCOON:057:1,2015-05-06T11:12:00Z,28.4460,-96.3961,3.88,1111122 
TCOON,ioos:station:TCOON:057:1,2015-05-06T12:12:00Z,28.4460,-96.3961,3.921,1111122 
TCOON,ioos:station:TCOON:057:1,2015-05-06T13:18:00Z,28.4460,-96.3961,3.948,1111122 
TCOON,ioos:station:TCOON:057:1,2015-05-06T14:12:00Z,28.4460,-96.3961,3.98,1111122 
TCOON,ioos:station:TCOON:057:1,2015-05-06T15:12:00Z,28.4460,-96.3961,3.997,1111122 
TCOON,ioos:station:TCOON:057:1,2015-05-06T16:12:00Z,28.4460,-96.3961,4.007,1111122 
TCOON,ioos:station:TCOON:057:1,2015-05-06T17:18:00Z,28.4460,-96.3961,4.019,1111122 
TCOON,ioos:station:TCOON:057:1,2015-05-06T18:18:00Z,28.4460,-96.3961,4.014,1111122 
TCOON,ioos:station:TCOON:057:1,2015-05-06T19:18:00Z,28.4460,-96.3961,4.016,1111122 
TCOON,ioos:station:TCOON:057:1,2015-05-06T20:12:00Z,28.4460,-96.3961,4.014,1111122 
TCOON,ioos:station:TCOON:057:1,2015-05-06T21:18:00Z,28.4460,-96.3961,3.986,1111122 
TCOON,ioos:station:TCOON:057:1,2015-05-06T22:24:00Z,28.4460,-96.3961,3.976,1111122 
TCOON,ioos:station:TCOON:057:1,2015-05-06T23:12:00Z,28.4460,-96.3961,3.95,1111122 
TCOON,ioos:station:TCOON:057:1,2015-05-07T00:12:00Z,28.4460,-96.3961,3.928,1111122 
TCOON,ioos:station:TCOON:057:1,2015-05-07T01:12:00Z,28.4460,-96.3961,3.901,1111122 
TCOON,ioos:station:TCOON:057:1,2015-05-07T02:18:00Z,28.4460,-96.3961,3.87,1111122 
TCOON,ioos:station:TCOON:057:1,2015-05-07T03:12:00Z,28.4460,-96.3961,3.832,1111122 
TCOON,ioos:station:TCOON:057:1,2015-05-07T04:18:00Z,28.4460,-96.3961,3.795,1111122 
TCOON,ioos:station:TCOON:057:1,2015-05-07T05:12:00Z,28.4460,-96.3961,3.781,1111122 
TCOON,ioos:station:TCOON:057:1,2015-05-07T06:30:00Z,28.4460,-96.3961,3.76,1111122 
TCOON,ioos:station:TCOON:057:1,2015-05-07T07:12:00Z,28.4460,-96.3961,3.75,1111122 
TCOON,ioos:station:TCOON:057:1,2015-05-07T08:18:00Z,28.4460,-96.3961,3.769,1111122 
TCOON,ioos:station:TCOON:057:1,2015-05-07T09:18:00Z,28.4460,-96.3961,3.799,1111122 
TCOON,ioos:station:TCOON:057:1,2015-05-07T10:12:00Z,28.4460,-96.3961,3.829,1111122 
TCOON,ioos:station:TCOON:057:1,2015-05-07T11:12:00Z,28.4460,-96.3961,3.868,1111122 
TCOON,ioos:station:TCOON:057:1,2015-05-07T12:18:00Z,28.4460,-96.3961,3.923,1111122 
TCOON,ioos:station:TCOON:057:1,2015-05-07T13:12:00Z,28.4460,-96.3961,3.943,1111122 
TCOON,ioos:station:TCOON:057:1,2015-05-07T14:12:00Z,28.4460,-96.3961,3.972,1111122 
TCOON,ioos:station:TCOON:057:1,2015-05-07T15:18:00Z,28.4460,-96.3961,3.987,1111122 
TCOON,ioos:station:TCOON:057:1,2015-05-07T16:18:00Z,28.4460,-96.3961,4.007,1111122 
TCOON,ioos:station:TCOON:057:1,2015-05-07T17:18:00Z,28.4460,-96.3961,4.011,1111122 
TCOON,ioos:station:TCOON:057:1,2015-05-07T18:18:00Z,28.4460,-96.3961,4.019,1111122 
TCOON,ioos:station:TCOON:057:1,2015-05-07T19:12:00Z,28.4460,-96.3961,4.005,1111122 
TCOON,ioos:station:TCOON:057:1,2015-05-07T20:12:00Z,28.4460,-96.3961,3.998,1111122 
TCOON,ioos:station:TCOON:057:1,2015-05-07T21:18:00Z,28.4460,-96.3961,3.99,1111122 
TCOON,ioos:station:TCOON:057:1,2015-05-07T22:24:00Z,28.4460,-96.3961,3.957,1111122 
TCOON,ioos:station:TCOON:057:1,2015-05-07T23:12:00Z,28.4460,-96.3961,3.955,1111122 
TCOON,ioos:station:TCOON:057:1,2015-05-08T00:12:00Z,28.4460,-96.3961,3.918,1111122 
TCOON,ioos:station:TCOON:057:1,2015-05-08T01:12:00Z,28.4460,-96.3961,3.889,1111122 
TCOON,ioos:station:TCOON:057:1,2015-05-08T02:12:00Z,28.4460,-96.3961,3.853,1111122 
TCOON,ioos:station:TCOON:057:1,2015-05-08T03:12:00Z,28.4460,-96.3961,3.812,1111122 
TCOON,ioos:station:TCOON:057:1,2015-05-08T04:12:00Z,28.4460,-96.3961,3.78,1111122 
TCOON,ioos:station:TCOON:057:1,2015-05-08T05:18:00Z,28.4460,-96.3961,3.751,1111122 
TCOON,ioos:station:TCOON:057:1,2015-05-08T06:18:00Z,28.4460,-96.3961,3.736,1111122 
TCOON,ioos:station:TCOON:057:1,2015-05-08T07:12:00Z,28.4460,-96.3961,3.712,1111122 
TCOON,ioos:station:TCOON:057:1,2015-05-08T08:18:00Z,28.4460,-96.3961,3.712,1111122 
TCOON,ioos:station:TCOON:057:1,2015-05-08T09:12:00Z,28.4460,-96.3961,3.713,1111122 
TCOON,ioos:station:TCOON:057:1,2015-05-08T10:18:00Z,28.4460,-96.3961,3.761,1111122 
TCOON,ioos:station:TCOON:057:1,2015-05-08T11:12:00Z,28.4460,-96.3961,3.805,1111122 
TCOON,ioos:station:TCOON:057:1,2015-05-08T12:18:00Z,28.4460,-96.3961,3.832,1111122 
TCOON,ioos:station:TCOON:057:1,2015-05-08T13:12:00Z,28.4460,-96.3961,3.871,1111122 
TCOON,ioos:station:TCOON:057:1,2015-05-08T14:24:00Z,28.4460,-96.3961,3.904,1111122 
TCOON,ioos:station:TCOON:057:1,2015-05-08T15:12:00Z,28.4460,-96.3961,3.932,1111122 
TCOON,ioos:station:TCOON:057:1,2015-05-08T16:18:00Z,28.4460,-96.3961,3.954,1111122 
TCOON,ioos:station:TCOON:057:1,2015-05-08T17:18:00Z,28.4460,-96.3961,3.976,1111122 
TCOON,ioos:station:TCOON:057:1,2015-05-08T18:18:00Z,28.4460,-96.3961,3.992,1111122 
TCOON,ioos:station:TCOON:057:1,2015-05-08T19:12:00Z,28.4460,-96.3961,3.998,1111122 
TCOON,ioos:station:TCOON:057:1,2015-05-08T20:12:00Z,28.4460,-96.3961,4.009,1111122 
TCOON,ioos:station:TCOON:057:1,2015-05-08T21:12:00Z,28.4460,-96.3961,4.021,1111122 
TCOON,ioos:station:TCOON:057:1,2015-05-08T22:12:00Z,28.4460,-96.3961,4.008,1111122 
TCOON,ioos:station:TCOON:057:1,2015-05-08T23:12:00Z,28.4460,-96.3961,3.984,1111122 
TCOON,ioos:station:TCOON:057:1,2015-05-09T00:12:00Z,28.4460,-96.3961,3.969,1111122 
TCOON,ioos:station:TCOON:057:1,2015-05-09T01:12:00Z,28.4460,-96.3961,3.946,1111122 
TCOON,ioos:station:TCOON:057:1,2015-05-09T02:12:00Z,28.4460,-96.3961,3.923,1111122 
TCOON,ioos:station:TCOON:057:1,2015-05-09T03:12:00Z,28.4460,-96.3961,3.853,1111122 
TCOON,ioos:station:TCOON:057:1,2015-05-09T04:12:00Z,28.4460,-96.3961,3.827,1111122 
TCOON,ioos:station:TCOON:057:1,2015-05-09T05:12:00Z,28.4460,-96.3961,3.776,1111122 
TCOON,ioos:station:TCOON:057:1,2015-05-09T06:24:00Z,28.4460,-96.3961,3.77,1111122 
TCOON,ioos:station:TCOON:057:1,2015-05-09T07:12:00Z,28.4460,-96.3961,3.659,1111122 
TCOON,ioos:station:TCOON:057:1,2015-05-09T08:12:00Z,28.4460,-96.3961,3.733,1111122 
TCOON,ioos:station:TCOON:057:1,2015-05-09T09:12:00Z,28.4460,-96.3961,3.717,1111122 
TCOON,ioos:station:TCOON:057:1,2015-05-09T10:12:00Z,28.4460,-96.3961,3.766,1111122 
TCOON,ioos:station:TCOON:057:1,2015-05-09T11:12:00Z,28.4460,-96.3961,3.789,1111122 
TCOON,ioos:station:TCOON:057:1,2015-05-09T12:12:00Z,28.4460,-96.3961,3.83,1111122 
TCOON,ioos:station:TCOON:057:1,2015-05-09T13:12:00Z,28.4460,-96.3961,3.87,1111122 
TCOON,ioos:station:TCOON:057:1,2015-05-09T14:12:00Z,28.4460,-96.3961,3.894,1111122 
TCOON,ioos:station:TCOON:057:1,2015-05-09T15:12:00Z,28.4460,-96.3961,3.915,1111122 
TCOON,ioos:station:TCOON:057:1,2015-05-09T16:12:00Z,28.4460,-96.3961,3.938,1111122 
TCOON,ioos:station:TCOON:057:1,2015-05-09T17:12:00Z,28.4460,-96.3961,3.963,1111122 
TCOON,ioos:station:TCOON:057:1,2015-05-09T18:18:00Z,28.4460,-96.3961,3.988,1111122 
TCOON,ioos:station:TCOON:057:1,2015-05-09T19:12:00Z,28.4460,-96.3961,3.977,1111122 
TCOON,ioos:station:TCOON:057:1,2015-05-09T20:12:00Z,28.4460,-96.3961,3.988,1111122 
TCOON,ioos:station:TCOON:057:1,2015-05-09T21:18:00Z,28.4460,-96.3961,3.98,1111122 
TCOON,ioos:station:TCOON:057:1,2015-05-09T22:12:00Z,28.4460,-96.3961,3.971,1111122 
TCOON,ioos:station:TCOON:057:1,2015-05-09T23:12:00Z,28.4460,-96.3961,3.95,1111122 
TCOON,ioos:station:TCOON:057:1,2015-05-10T00:12:00Z,28.4460,-96.3961,3.918,1111122 
TCOON,ioos:station:TCOON:057:1,2015-05-10T01:12:00Z,28.4460,-96.3961,3.9,1111122 
TCOON,ioos:station:TCOON:057:1,2015-05-10T02:12:00Z,28.4460,-96.3961,3.875,1111122 
TCOON,ioos:station:TCOON:057:1,2015-05-10T03:12:00Z,28.4460,-96.3961,3.851,1111122 
TCOON,ioos:station:TCOON:057:1,2015-05-10T04:12:00Z,28.4460,-96.3961,3.821,1111122 
TCOON,ioos:station:TCOON:057:1,2015-05-10T05:18:00Z,28.4460,-96.3961,3.822,1111122 
TCOON,ioos:station:TCOON:057:1,2015-05-10T06:18:00Z,28.4460,-96.3961,3.778,1111122 
TCOON,ioos:station:TCOON:057:1,2015-05-10T07:12:00Z,28.4460,-96.3961,3.763,1111122 
TCOON,ioos:station:TCOON:057:1,2015-05-10T08:18:00Z,28.4460,-96.3961,3.731,1111122 
TCOON,ioos:station:TCOON:057:1,2015-05-10T09:12:00Z,28.4460,-96.3961,3.738,1111122 
TCOON,ioos:station:TCOON:057:1,2015-05-10T10:12:00Z,28.4460,-96.3961,3.759,1111122 
TCOON,ioos:station:TCOON:057:1,2015-05-10T11:12:00Z,28.4460,-96.3961,3.761,1111122 
TCOON,ioos:station:TCOON:057:1,2015-05-10T12:12:00Z,28.4460,-96.3961,3.798,1111122 
TCOON,ioos:station:TCOON:057:1,2015-05-10T13:12:00Z,28.4460,-96.3961,3.837,1111122 
TCOON,ioos:station:TCOON:057:1,2015-05-10T14:18:00Z,28.4460,-96.3961,3.881,1111122 
TCOON,ioos:station:TCOON:057:1,2015-05-10T15:12:00Z,28.4460,-96.3961,3.92,1111122 
TCOON,ioos:station:TCOON:057:1,2015-05-10T16:12:00Z,28.4460,-96.3961,3.933,1111122 
TCOON,ioos:station:TCOON:057:1,2015-05-10T17:12:00Z,28.4460,-96.3961,3.962,1111122 
TCOON,ioos:station:TCOON:057:1,2015-05-10T18:12:00Z,28.4460,-96.3961,3.98,1111122 
TCOON,ioos:station:TCOON:057:1,2015-05-10T19:12:00Z,28.4460,-96.3961,4.007,1111122 
TCOON,ioos:station:TCOON:057:1,2015-05-10T20:12:00Z,28.4460,-96.3961,4.009,1111122 
TCOON,ioos:station:TCOON:057:1,2015-05-10T21:12:00Z,28.4460,-96.3961,3.989,1111122 
TCOON,ioos:station:TCOON:057:1,2015-05-10T22:12:00Z,28.4460,-96.3961,3.988,1111122 
TCOON,ioos:station:TCOON:057:1,2015-05-10T23:12:00Z,28.4460,-96.3961,3.966,1111122 
TCOON,ioos:station:TCOON:057:1,2015-05-11T00:12:00Z,28.4460,-96.3961,3.935,1111122 
TCOON,ioos:station:TCOON:057:1,2015-05-11T01:12:00Z,28.4460,-96.3961,3.93,1111122 
TCOON,ioos:station:TCOON:057:1,2015-05-11T02:12:00Z,28.4460,-96.3961,3.899,1111122 
TCOON,ioos:station:TCOON:057:1,2015-05-11T03:12:00Z,28.4460,-96.3961,3.885,1111122 
TCOON,ioos:station:TCOON:057:1,2015-05-11T04:18:00Z,28.4460,-96.3961,3.852,1111122 
TCOON,ioos:station:TCOON:057:1,2015-05-11T05:12:00Z,28.4460,-96.3961,3.846,1111122 
TCOON,ioos:station:TCOON:057:1,2015-05-11T07:06:00Z,28.4460,-96.3961,3.822,1111122 
TCOON,ioos:station:TCOON:057:1,2015-05-11T08:18:00Z,28.4460,-96.3961,3.806,1111122 
TCOON,ioos:station:TCOON:057:1,2015-05-11T09:12:00Z,28.4460,-96.3961,3.773,1111122 
TCOON,ioos:station:TCOON:057:1,2015-05-11T10:12:00Z,28.4460,-96.3961,3.777,1111122 
TCOON,ioos:station:TCOON:057:1,2015-05-11T11:12:00Z,28.4460,-96.3961,3.782,1111122 
TCOON,ioos:station:TCOON:057:1,2015-05-11T12:12:00Z,28.4460,-96.3961,3.781,1111122 
TCOON,ioos:station:TCOON:057:1,2015-05-11T13:18:00Z,28.4460,-96.3961,3.816,1111122 
TCOON,ioos:station:TCOON:057:1,2015-05-11T14:18:00Z,28.4460,-96.3961,3.83,1111122 
TCOON,ioos:station:TCOON:057:1,2015-05-11T15:12:00Z,28.4460,-96.3961,3.832,1111122 
TCOON,ioos:station:TCOON:057:1,2015-05-11T16:18:00Z,28.4460,-96.3961,3.878,1111122 
TCOON,ioos:station:TCOON:057:1,2015-05-11T17:12:00Z,28.4460,-96.3961,3.897,1111122 
TCOON,ioos:station:TCOON:057:1,2015-05-11T18:12:00Z,28.4460,-96.3961,3.889,1111122 
TCOON,ioos:station:TCOON:057:1,2015-05-11T19:12:00Z,28.4460,-96.3961,3.904,1111122 
TCOON,ioos:station:TCOON:057:1,2015-05-11T20:18:00Z,28.4460,-96.3961,3.914,1111122 
TCOON,ioos:station:TCOON:057:1,2015-05-11T21:18:00Z,28.4460,-96.3961,3.913,1111122 
TCOON,ioos:station:TCOON:057:1,2015-05-11T22:18:00Z,28.4460,-96.3961,3.898,1111122 
TCOON,ioos:station:TCOON:057:1,2015-05-11T23:12:00Z,28.4460,-96.3961,4.004,1111122 
TCOON,ioos:station:TCOON:057:1,2015-05-12T00:12:00Z,28.4460,-96.3961,3.925,1111122 
TCOON,ioos:station:TCOON:057:1,2015-05-12T01:12:00Z,28.4460,-96.3961,3.984,1111122 
TCOON,ioos:station:TCOON:057:1,2015-05-12T02:12:00Z,28.4460,-96.3961,3.884,1111122 
TCOON,ioos:station:TCOON:057:1,2015-05-12T03:12:00Z,28.4460,-96.3961,3.89,1111122 
TCOON,ioos:station:TCOON:057:1,2015-05-12T04:18:00Z,28.4460,-96.3961,3.894,1111122 
TCOON,ioos:station:TCOON:057:1,2015-05-12T05:18:00Z,28.4460,-96.3961,3.896,1111122 
TCOON,ioos:station:TCOON:057:1,2015-05-12T07:06:00Z,28.4460,-96.3961,3.949,1111122 
TCOON,ioos:station:TCOON:057:1,2015-05-12T08:18:00Z,28.4460,-96.3961,3.926,1111122 
TCOON,ioos:station:TCOON:057:1,2015-05-12T09:12:00Z,28.4460,-96.3961,3.861,1111122 
TCOON,ioos:station:TCOON:057:1,2015-05-12T10:12:00Z,28.4460,-96.3961,3.848,1111122 
TCOON,ioos:station:TCOON:057:1,2015-05-12T11:18:00Z,28.4460,-96.3961,3.807,1111122 
TCOON,ioos:station:TCOON:057:1,2015-05-12T12:12:00Z,28.4460,-96.3961,3.794,1111122 
TCOON,ioos:station:TCOON:057:1,2015-05-12T13:12:00Z,28.4460,-96.3961,3.739,1111122 
TCOON,ioos:station:TCOON:057:1,2015-05-12T14:18:00Z,28.4460,-96.3961,3.677,1111122 
TCOON,ioos:station:TCOON:057:1,2015-05-12T15:24:00Z,28.4460,-96.3961,3.766,1111122 
TCOON,ioos:station:TCOON:057:1,2015-05-12T16:12:00Z,28.4460,-96.3961,3.865,1111122 
TCOON,ioos:station:TCOON:057:1,2015-05-12T17:18:00Z,28.4460,-96.3961,3.95,1111122 
TCOON,ioos:station:TCOON:057:1,2015-05-12T18:18:00Z,28.4460,-96.3961,3.914,1111122 
TCOON,ioos:station:TCOON:057:1,2015-05-12T19:18:00Z,28.4460,-96.3961,3.928,1111122 
TCOON,ioos:station:TCOON:057:1,2015-05-12T20:18:00Z,28.4460,-96.3961,3.913,1111122 
TCOON,ioos:station:TCOON:057:1,2015-05-12T21:12:00Z,28.4460,-96.3961,3.923,1111122 
TCOON,ioos:station:TCOON:057:1,2015-05-12T22:18:00Z,28.4460,-96.3961,3.901,1111122 
TCOON,ioos:station:TCOON:057:1,2015-05-12T23:12:00Z,28.4460,-96.3961,3.878,1111122 
TCOON,ioos:station:TCOON:057:1,2015-05-13T00:18:00Z,28.4460,-96.3961,3.866,1111122 